SERT 2

Last updated on Thu Nov 21 2024 00:02:11 GMT+0000 (Coordinated Universal Time)

1 04327U 70009A 24325.48507354 .00000035 00000+0 10396-3 0 9993 2 04327 99.2109 285.0659 0004234 305.3574 202.2081 13.58659676715490
UTC large
Height (km)
Speed (km/s)
/
Latitude / Longitude
Inclination (degrees)
Orbital Period (minutes)
Azimuth
Elevation
Range (km)
Doppler Factor

Next 0 passes for location: London (51.5072 / 0.1276)

Sorry there are no passes over London.